Time,TemperatureF,DewpointF,PressureIn,WindDirection,WindDirectionDegrees,WindSpeedMPH,WindSpeedGustMPH,Humidity,HourlyPrecipIn,Conditions,Clouds,dailyrainin,SolarRadiationWatts/m^2,SoftwareType,DateUTC
2013-12-26 00:00:00,47.0,24.0,30.26,North,349,1.0,-999.0,40,0.00,,,-99.99,-1.700000,,2013-12-26 08:00:00,
2013-12-26 00:42:00,47.0,24.0,30.26,North,349,1.0,-999.0,40,0.00,,,-99.99,-1.700000,,2013-12-26 08:42:00,
2013-12-26 00:53:00,47.0,24.0,30.26,North,349,1.0,-999.0,40,0.00,,,-99.99,-1.700000,,2013-12-26 08:53:00,
2013-12-26 01:00:00,45.0,23.0,30.25,WSW,248,1.0,-999.0,42,0.00,,,-99.99,-2.100000,,2013-12-26 09:00:00,
2013-12-26 01:43:00,45.0,23.0,30.25,WSW,248,1.0,-999.0,42,0.00,,,-99.99,-2.100000,,2013-12-26 09:43:00,
2013-12-26 01:53:00,45.0,23.0,30.25,WSW,248,1.0,-999.0,42,0.00,,,-99.99,-2.100000,,2013-12-26 09:53:00,
2013-12-26 02:43:00,42.0,24.0,30.25,WNW,287,2.0,-999.0,47,0.00,,,-99.99,-2.500000,,2013-12-26 10:43:00,
2013-12-26 04:00:00,45.0,20.0,30.25,North,5,2.0,-999.0,37,0.00,,,-99.99,-1.100000,,2013-12-26 12:00:00,
2013-12-26 04:42:00,45.0,20.0,30.25,North,5,2.0,-999.0,37,0.00,,,-99.99,-1.100000,,2013-12-26 12:42:00,
2013-12-26 04:53:00,45.0,20.0,30.25,North,5,2.0,-999.0,37,0.00,,,-99.99,-1.100000,,2013-12-26 12:53:00,
2013-12-26 05:00:00,45.0,19.0,30.25,NNE,18,2.0,-999.0,35,0.00,,,-99.99,-2.200000,,2013-12-26 13:00:00,
2013-12-26 05:42:00,45.0,19.0,30.25,NNE,18,2.0,-999.0,35,0.00,,,-99.99,-2.200000,,2013-12-26 13:42:00,
2013-12-26 05:52:00,45.0,19.0,30.25,NNE,18,2.0,-999.0,35,0.00,,,-99.99,-2.200000,,2013-12-26 13:52:00,
2013-12-26 06:00:00,44.0,19.0,30.25,North,11,6.0,-999.0,36,0.00,,,-99.99,-3.200000,,2013-12-26 14:00:00,
2013-12-26 06:42:00,44.0,19.0,30.25,North,11,6.0,-999.0,36,0.00,,,-99.99,-3.200000,,2013-12-26 14:42:00,
2013-12-26 06:52:00,44.0,19.0,30.25,North,11,6.0,-999.0,36,0.00,,,-99.99,-3.200000,,2013-12-26 14:52:00,
2013-12-26 07:00:00,44.0,18.0,30.25,North,7,4.0,-999.0,36,0.00,,,-99.99,-3.000000,,2013-12-26 15:00:00,
2013-12-26 07:43:00,44.0,18.0,30.25,North,7,4.0,-999.0,36,0.00,,,-99.99,-3.000000,,2013-12-26 15:43:00,
2013-12-26 07:53:00,44.0,18.0,30.25,North,7,4.0,-999.0,36,0.00,,,-99.99,-3.000000,,2013-12-26 15:53:00,
2013-12-26 08:00:00,44.0,18.0,30.26,North,350,3.0,-999.0,36,0.00,,,-99.99,4.800000,,2013-12-26 16:00:00,
2013-12-26 08:42:00,44.0,18.0,30.26,North,350,3.0,-999.0,36,0.00,,,-99.99,4.800000,,2013-12-26 16:42:00,
2013-12-26 08:53:00,44.0,18.0,30.26,North,350,3.0,-999.0,36,0.00,,,-99.99,4.800000,,2013-12-26 16:53:00,
2013-12-26 09:00:00,46.0,18.0,30.26,North,354,3.0,-999.0,32,0.00,,,-99.99,27.100000,,2013-12-26 17:00:00,
2013-12-26 09:43:00,46.0,18.0,30.26,North,354,3.0,-999.0,32,0.00,,,-99.99,27.100000,,2013-12-26 17:43:00,
2013-12-26 09:52:00,46.0,18.0,30.26,North,354,3.0,-999.0,32,0.00,,,-99.99,27.100000,,2013-12-26 17:52:00,
2013-12-26 10:00:00,53.0,21.0,30.27,North,0,6.0,-999.0,28,0.00,,,-99.99,289.299988,,2013-12-26 18:00:00,
2013-12-26 10:42:00,53.0,21.0,30.27,North,0,6.0,-999.0,28,0.00,,,-99.99,289.299988,,2013-12-26 18:42:00,
2013-12-26 10:52:00,53.0,21.0,30.27,North,0,6.0,-999.0,28,0.00,,,-99.99,289.299988,,2013-12-26 18:52:00,
2013-12-26 11:00:00,60.0,25.0,30.27,NNE,14,4.0,-999.0,26,0.00,,,-99.99,424.200012,,2013-12-26 19:00:00,
2013-12-26 11:42:00,60.0,25.0,30.27,NNE,14,4.0,-999.0,26,0.00,,,-99.99,424.200012,,2013-12-26 19:42:00,
2013-12-26 11:52:00,60.0,25.0,30.27,NNE,14,4.0,-999.0,26,0.00,,,-99.99,424.200012,,2013-12-26 19:52:00,
2013-12-26 12:00:00,67.0,25.0,30.24,NNE,15,2.0,-999.0,21,0.00,,,-99.99,484.200012,,2013-12-26 20:00:00,
2013-12-26 12:42:00,67.0,25.0,30.24,NNE,15,2.0,-999.0,21,0.00,,,-99.99,484.200012,,2013-12-26 20:42:00,
2013-12-26 12:52:00,67.0,25.0,30.24,NNE,15,2.0,-999.0,21,0.00,,,-99.99,484.200012,,2013-12-26 20:52:00,
2013-12-26 13:00:00,68.0,23.0,30.23,WSW,258,2.0,-999.0,18,0.00,,,-99.99,363.799988,,2013-12-26 21:00:00,
2013-12-26 13:43:00,68.0,23.0,30.23,WSW,258,2.0,-999.0,18,0.00,,,-99.99,363.799988,,2013-12-26 21:43:00,
2013-12-26 13:53:00,68.0,23.0,30.23,WSW,258,2.0,-999.0,18,0.00,,,-99.99,363.799988,,2013-12-26 21:53:00,
2013-12-26 14:00:00,68.0,23.0,30.21,North,353,1.0,-999.0,18,0.00,,,-99.99,198.000000,,2013-12-26 22:00:00,
2013-12-26 14:43:00,68.0,23.0,30.21,North,353,1.0,-999.0,18,0.00,,,-99.99,198.000000,,2013-12-26 22:43:00,
2013-12-26 14:52:00,68.0,23.0,30.21,North,353,1.0,-999.0,18,0.00,,,-99.99,198.000000,,2013-12-26 22:52:00,
2013-12-26 15:00:00,66.0,29.0,30.21,NW,304,0.0,-999.0,25,0.00,,,-99.99,90.400002,,2013-12-26 23:00:00,
2013-12-26 15:42:00,66.0,29.0,30.21,NW,304,0.0,-999.0,25,0.00,,,-99.99,90.400002,,2013-12-26 23:42:00,
2013-12-26 15:53:00,66.0,29.0,30.21,NW,304,0.0,-999.0,25,0.00,,,-99.99,90.400002,,2013-12-26 23:53:00,
2013-12-26 16:00:00,59.0,32.0,30.20,West,280,0.0,-999.0,36,0.00,,,-99.99,28.500000,,2013-12-27 00:00:00,
2013-12-26 16:52:00,59.0,32.0,30.20,West,280,0.0,-999.0,36,0.00,,,-99.99,28.500000,,2013-12-27 00:52:00,
2013-12-26 19:00:00,47.0,32.0,30.20,NW,316,2.0,-999.0,54,0.00,,,-99.99,-0.800000,,2013-12-27 03:00:00,
2013-12-26 19:43:00,47.0,32.0,30.20,NW,316,2.0,-999.0,54,0.00,,,-99.99,-0.800000,,2013-12-27 03:43:00,
2013-12-26 19:53:00,47.0,32.0,30.20,NW,316,2.0,-999.0,54,0.00,,,-99.99,-0.800000,,2013-12-27 03:53:00,
2013-12-26 21:00:00,44.0,31.0,30.22,NNW,348,3.0,-999.0,58,0.00,,,-99.99,-0.400000,,2013-12-27 05:00:00,
2013-12-26 21:42:00,44.0,31.0,30.22,NNW,348,3.0,-999.0,58,0.00,,,-99.99,-0.400000,,2013-12-27 05:42:00,
2013-12-26 21:52:00,44.0,31.0,30.22,NNW,348,3.0,-999.0,58,0.00,,,-99.99,-0.400000,,2013-12-27 05:52:00,
2013-12-26 22:00:00,46.0,29.0,30.23,North,356,4.0,-999.0,51,0.00,,,-99.99,-1.600000,,2013-12-27 06:00:00,
2013-12-26 22:43:00,46.0,29.0,30.23,North,356,4.0,-999.0,51,0.00,,,-99.99,-1.600000,,2013-12-27 06:43:00,
2013-12-26 22:52:00,46.0,29.0,30.23,North,356,4.0,-999.0,51,0.00,,,-99.99,-1.600000,,2013-12-27 06:52:00,
2013-12-26 23:00:00,41.0,28.0,30.23,NNW,345,2.0,-999.0,58,0.00,,,-99.99,-2.800000,,2013-12-27 07:00:00,
2013-12-26 23:52:00,41.0,28.0,30.23,NNW,345,2.0,-999.0,58,0.00,,,-99.99,-2.800000,,2013-12-27 07:52:00,